Weather History for Salt Lake City, UT

Change the Weather History Date:

Saturday, August 9, 2014

  Actual Average Record
Temperature  
Mean Temperature 77 °F 79 °F  
Max Temperature 89 °F 92 °F 103 °F (1940)
Min Temperature 65 °F 65 °F 51 °F (1931)
Degree Days  
Heating Degree Days 0 0  
Month to date heating degree days 0 0  
Since 1 June heating degree days 39 48  
Since 1 July heating degree days 0 2  
Cooling Degree Days 12 14  
Month to date cooling degree days 102 129  
Year to date cooling degree days 859 791  
Since 1 June cooling degree days 797 741  
Growing Degree Days 26 (Base 50)    
Moisture  
Dew Point 46 °F    
Average Humidity 35    
Maximum Humidity 52    
Minimum Humidity 17    
Precipitation  
Precipitation 0.00 in 0.02 in 0.41 in (1908)
Month to date precipitation 0.54 0.19  
Year to date precipitation 8.71 10.01  
Snow  
Snow 0.00 in 0.00 in - ()
Month to date snowfall 0.0 0.0  
Since 1 July snowfall 0.0 0.0  
Snow Depth 0.00 in    
Sea Level Pressure  
Sea Level Pressure 29.97 in    
Wind  
Wind Speed 6 mph (SSE)    
Max Wind Speed 15 mph    
Max Gust Speed 18 mph    
Visibility 10 miles    
Events      
T = Trace of Precipitation, MM = Missing Value Source: NWS Daily Summary

Daily Weather History Graph

Daily Weather History Graph

Search for Another Location

Airport:

Trip Planner

Search our weather history database for the weather conditions in past years. The results will help you decide how hot, cold, wet, or windy it might be!

Date:

Astronomy

Aug. 09, 2014 Rise Set
Actual Time 6:32 AM MDT 8:33 PM MDT
Civil Twilight 6:02 AM MDT 9:03 PM MDT
Nautical Twilight 5:25 AM MDT 9:40 PM MDT
Astronomical Twilight 4:45 AM MDT 10:19 PM MDT
Moon 7:38 PM MDT (8/9) 5:17 AM MDT (8/9)
Length of Visible Light 15h 01m
Length of Day
14h 01m
Waxing Gibbous, 98% of the Moon is Illuminated
Aug 9
Waxing Gibbous
Aug 10
Full
Aug 17
Last Quarter
Aug 25
New
Sep 2
First Quarter

Hourly Weather History & Observations

Time (MDT) Temp. Dew Point Humidity Pressure Visibility Wind Dir Wind Speed Gust Speed Precip Events Conditions
12:53 AM 70.0 °F 48.0 °F 46% 29.95 in 10.0 mi SSE 8.1 mph - N/A   Mostly Cloudy
1:53 AM 70.0 °F 46.9 °F 44% 29.92 in 10.0 mi East 4.6 mph - N/A   Mostly Cloudy
2:53 AM 69.1 °F 48.0 °F 47% 29.91 in 10.0 mi SSW 4.6 mph - N/A   Mostly Cloudy
3:53 AM 70.0 °F 46.9 °F 44% 29.92 in 10.0 mi SE 10.4 mph - N/A   Mostly Cloudy
4:53 AM 68.0 °F 48.0 °F 49% 29.94 in 10.0 mi SE 8.1 mph - N/A   Scattered Clouds
5:53 AM 66.0 °F 48.9 °F 54% 29.95 in 10.0 mi SSE 5.8 mph - N/A   Scattered Clouds
6:53 AM 64.9 °F 48.0 °F 54% 29.97 in 10.0 mi SSE 5.8 mph - N/A   Scattered Clouds
7:53 AM 70.0 °F 48.0 °F 46% 29.98 in 10.0 mi SSE 6.9 mph - N/A   Partly Cloudy
8:53 AM 72.0 °F 50.0 °F 46% 30.00 in 10.0 mi South 8.1 mph - N/A   Partly Cloudy
9:53 AM 75.9 °F 48.0 °F 37% 30.01 in 10.0 mi NNE 4.6 mph - N/A   Partly Cloudy
10:53 AM 78.8 °F 48.2 °F 34% 30.17 in 10.0 mi NW 3.5 mph - N/A   Partly Cloudy
11:53 AM 81.0 °F 46.9 °F 30% 30.02 in 10.0 mi West 4.6 mph - N/A   Partly Cloudy
12:53 PM 84.0 °F 46.9 °F 27% 30.00 in 10.0 mi NW 8.1 mph - N/A   Partly Cloudy
1:53 PM 86.0 °F 43.0 °F 22% 29.99 in 10.0 mi North 6.9 mph - N/A   Scattered Clouds
2:53 PM 87.1 °F 39.9 °F 19% 29.98 in 10.0 mi Variable 3.5 mph - N/A   Mostly Cloudy
3:53 PM 87.1 °F 39.9 °F 19% 29.96 in 10.0 mi Variable 4.6 mph - N/A   Mostly Cloudy
4:53 PM 87.1 °F 37.9 °F 18% 29.94 in 10.0 mi Calm Calm - N/A   Mostly Cloudy
5:53 PM 89.1 °F 42.1 °F 19% 29.93 in 10.0 mi Calm Calm - N/A   Mostly Cloudy
6:53 PM 87.1 °F 37.9 °F 18% 29.95 in 10.0 mi Variable 4.6 mph - N/A   Mostly Cloudy
7:53 PM 86.0 °F 41.0 °F 20% 29.94 in 10.0 mi NW 8.1 mph - N/A   Mostly Cloudy
8:53 PM 80.6 °F 48.2 °F 32% 30.11 in 10.0 mi North 6.9 mph - N/A   Scattered Clouds
9:53 PM 75.9 °F 51.1 °F 42% 29.97 in 10.0 mi ESE 4.6 mph - N/A   Partly Cloudy
10:53 PM 75.0 °F 48.0 °F 38% 29.96 in 10.0 mi SSW 3.5 mph - N/A   Scattered Clouds
11:53 PM 73.9 °F 46.0 °F 37% 29.96 in 10.0 mi ESE 6.9 mph - N/A   Scattered Clouds